Amsterdam, Netherlands

6:29 AM CET on December 10, 2019 (GMT +0100)
Schiphol

Weather History for EHAM - October, 2019

Change the Weather History Date:

Saturday, October 26, 2019

  Actual Average Record
Temperature  
Mean Temperature 61 °F -  
Max Temperature 65 °F 49 °F 68 °F (2006)
Min Temperature 57 °F 40 °F 33 °F (2003)
Degree Days  
Heating Degree Days 4    
Growing Degree Days 11 (Base 50)    
Moisture  
Dew Point 54 °F    
Average Humidity 74    
Maximum Humidity 94    
Minimum Humidity 55    
Precipitation  
Precipitation 0.12 in - - ()
Sea Level Pressure  
Sea Level Pressure 29.82 in    
Wind  
Wind Speed 20 mph ()    
Max Wind Speed 26 mph    
Max Gust Speed 36 mph    
Visibility 6.0 miles    
Events Rain    
Averages and records for this station are not official NWS values.
T = Trace of Precipitation, MM = Missing Value Source: Averaged Metar Reports

Daily Weather History Graph

Daily Weather History Graph

Search for Another Location

Airport or City:

Astronomy

Oct. 26, 2019 Rise Set
Actual Time 8:24 AM CEST 6:24 PM CEST
Civil Twilight 7:49 AM CEST 6:59 PM CEST
Nautical Twilight 7:09 AM CEST 7:38 PM CEST
Astronomical Twilight 6:30 AM CEST 8:18 PM CEST
Moon 5:33 AM CEST (10/26) 6:12 PM CEST (10/26)
Length of Visible Light 11h 09m
Length of Day
9h 59m
Waning Crescent, 4% of the Moon is Illuminated
Oct 26
Waning Crescent
Oct 28
New
Nov 4
First Quarter
Nov 12
Full
Nov 19
Last Quarter

Hourly Weather History & Observations

Time (CEST) Temp. Dew Point Humidity Pressure Visibility Wind Dir Wind Speed Gust Speed Precip Events Conditions
12:00 AM 60 °F 54 °F 76% 29.91 in 28 mi SSW 22.4 mph - -   Partly Cloudy
12:25 AM 59.0 °F 53.6 °F 82% 29.89 in 6.2 mi SSW 24.2 mph - N/A   Partly Cloudy
12:55 AM 59.0 °F 53.6 °F 82% 29.89 in 6.2 mi SSW 23.0 mph - N/A   Partly Cloudy
1:25 AM 59.0 °F 53.6 °F 82% 29.86 in 6.2 mi SSW 21.9 mph - N/A   Partly Cloudy
1:55 AM 59.0 °F 53.6 °F 82% 29.86 in 6.2 mi SSW 26.5 mph - N/A   Partly Cloudy
2:25 AM 59.0 °F 53.6 °F 82% 29.86 in 6.2 mi SSW 23.0 mph - N/A   Partly Cloudy
3:00 AM 59 °F 53 °F 73% 29.87 in 28 mi SSW 24.6 mph - -   Overcast
3:25 AM 59.0 °F 51.8 °F 77% 29.86 in 6.2 mi SSW 23.0 mph - N/A   Scattered Clouds
3:55 AM 59.0 °F 53.6 °F 82% 29.86 in 6.2 mi SSW 23.0 mph - N/A   Mostly Cloudy
4:00 AM 60 °F 53 °F 70% 29.87 in 28 mi SSW 22.4 mph - -   Partly Cloudy
4:25 AM 60.8 °F 53.6 °F 77% 29.86 in 6.2 mi SSW 21.9 mph - N/A   Mostly Cloudy
4:55 AM 60.8 °F 53.6 °F 77% 29.86 in 6.2 mi SSW 24.2 mph - N/A   Mostly Cloudy
5:00 AM 60 °F 53 °F 70% 29.86 in 28 mi SSW 22.4 mph - -   Partly Cloudy
5:25 AM 59.0 °F 51.8 °F 77% 29.86 in 6.2 mi SSW 24.2 mph 35.7 mph N/A   Mostly Cloudy
5:55 AM 59.0 °F 51.8 °F 77% 29.86 in 6.2 mi SSW 24.2 mph - N/A   Mostly Cloudy
6:00 AM 60 °F 52 °F 68% 29.85 in 28 mi SSW 24.6 mph - -   Partly Cloudy
6:25 AM 59.0 °F 51.8 °F 77% 29.83 in 6.2 mi SSW 24.2 mph - N/A   Mostly Cloudy
6:55 AM 59.0 °F 51.8 °F 77% 29.83 in 6.2 mi SSW 23.0 mph - N/A   Scattered Clouds
7:00 AM 59 °F 52 °F 71% 29.86 in 28 mi SSW 22.4 mph - -   Partly Cloudy
7:25 AM 59.0 °F 51.8 °F 77% 29.86 in 6.2 mi SSW 21.9 mph - N/A   Mostly Cloudy
7:55 AM 59.0 °F 53.6 °F 82% 29.83 in 6.2 mi SSW 19.6 mph - N/A   Mostly Cloudy
8:00 AM 59 °F 53 °F 73% 29.85 in 28 mi SSW 20.1 mph - -   Partly Cloudy
8:25 AM 59.0 °F 53.6 °F 82% 29.83 in 6.2 mi SSW 21.9 mph - N/A   Mostly Cloudy
8:55 AM 59.0 °F 53.6 °F 82% 29.86 in 6.2 mi SSW 20.7 mph - N/A   Mostly Cloudy
9:00 AM 60 °F 53 °F 70% 29.86 in 28 mi SSW 20.1 mph - -   Partly Cloudy
9:25 AM 59.0 °F 53.6 °F 82% 29.86 in 6.2 mi SSW 19.6 mph - N/A   Mostly Cloudy
9:55 AM 60.8 °F 53.6 °F 77% 29.86 in 6.2 mi SSW 18.4 mph - N/A   Mostly Cloudy
10:00 AM 60 °F 54 °F 73% 29.87 in 28 mi SSW 17.9 mph - -   Partly Cloudy
10:25 AM 60.8 °F 53.6 °F 77% 29.86 in 6.2 mi SSW 20.7 mph - N/A   Mostly Cloudy
10:55 AM 60.8 °F 53.6 °F 77% 29.83 in 6.2 mi SSW 20.7 mph - N/A   Scattered Clouds
11:25 AM 60.8 °F 53.6 °F 77% 29.83 in 6.2 mi SSW 19.6 mph - N/A   Mostly Cloudy
11:55 AM 60.8 °F 53.6 °F 77% 29.83 in 6.2 mi SSW 21.9 mph - N/A   Mostly Cloudy
12:00 PM 61 °F 53 °F 69% 29.86 in 28 mi SSW 24.6 mph - -   Partly Cloudy
12:25 PM 60.8 °F 53.6 °F 77% 29.83 in 6.2 mi SSW 24.2 mph - N/A   Mostly Cloudy
12:55 PM 62.6 °F 53.6 °F 72% 29.86 in 6.2 mi SW 25.3 mph - N/A   Mostly Cloudy
1:00 PM 62 °F 53 °F 65% 29.85 in 22 mi SW 24.6 mph - -   Partly Cloudy
1:25 PM 64.4 °F 53.6 °F 68% 29.83 in 6.2 mi SW 25.3 mph - N/A   Partly Cloudy
1:55 PM 64.4 °F 53.6 °F 68% 29.83 in 6.2 mi SSW 20.7 mph - N/A   Partly Cloudy
2:25 PM 64.4 °F 53.6 °F 68% 29.80 in 6.2 mi SSW 20.7 mph - N/A   Partly Cloudy
2:55 PM 64.4 °F 51.8 °F 64% 29.80 in 6.2 mi SSW 23.0 mph - N/A   Partly Cloudy
3:00 PM 65 °F 53 °F 55% 29.80 in 25 mi SSW 24.6 mph - -   Partly Cloudy
3:25 PM 64.4 °F 53.6 °F 68% 29.77 in 6.2 mi SSW 21.9 mph - N/A   Partly Cloudy
3:55 PM 64.4 °F 51.8 °F 64% 29.77 in 6.2 mi SSW 21.9 mph - N/A   Partly Cloudy
4:25 PM 64.4 °F 51.8 °F 64% 29.77 in 6.2 mi SSW 19.6 mph - N/A   Partly Cloudy
4:55 PM 64.4 °F 51.8 °F 64% 29.77 in 6.2 mi SSW 19.6 mph - N/A   Partly Cloudy
5:00 PM 64 °F 52 °F 55% 29.78 in 28 mi SSW 20.1 mph - -   Partly Cloudy
5:25 PM 62.6 °F 51.8 °F 68% 29.77 in 6.2 mi SSW 19.6 mph - N/A   Partly Cloudy
5:55 PM 62.6 °F 51.8 °F 68% 29.74 in 6.2 mi SSW 13.8 mph - N/A   Partly Cloudy
6:00 PM 62 °F 53 °F 63% 29.77 in 28 mi SSW 13.4 mph - -   Partly Cloudy
6:25 PM 62.6 °F 53.6 °F 72% 29.74 in - SSW 13.8 mph - N/A   Clear
6:55 PM 62.6 °F 53.6 °F 72% 29.74 in 6.2 mi SSW 17.3 mph - N/A Rain Light Rain
7:00 PM 64 °F 53 °F 57% 29.76 in 28 mi SSW 17.9 mph - - Rain Rain
7:25 PM 64.4 °F 51.8 °F 64% 29.74 in 6.2 mi SSW 18.4 mph - N/A   Scattered Clouds
7:55 PM 64.4 °F 53.6 °F 68% 29.77 in 6.2 mi SW 18.4 mph - N/A Rain Light Rain
8:00 PM 64 °F 53 °F 58% 29.77 in 28 mi SW 17.9 mph - -   Partly Cloudy
8:25 PM 64.4 °F 53.6 °F 68% 29.77 in 6.2 mi SW 19.6 mph - N/A   Mostly Cloudy
8:55 PM 62.6 °F 53.6 °F 72% 29.77 in 6.2 mi SW 18.4 mph - N/A   Light Drizzle
9:00 PM 62 °F 54 °F 69% 29.78 in 28 mi WSW 20.1 mph - -   Partly Cloudy
9:25 PM 60.8 °F 55.4 °F 82% 29.77 in 4.3 mi SW 17.3 mph - N/A   Light Drizzle
9:55 PM 60.8 °F 57.2 °F 88% 29.77 in 4.3 mi SW 18.4 mph - N/A Rain Rain
10:00 PM 60 °F 57 °F 87% 29.78 in 4 mi SW 20.1 mph - - Rain Drizzle
10:25 PM 59.0 °F 57.2 °F 94% 29.77 in 3.1 mi SW 24.2 mph - N/A Rain Rain
10:55 PM 60.8 °F 59.0 °F 94% 29.77 in 6.2 mi SW 21.9 mph - N/A Rain Light Rain
11:00 PM 60 °F 58 °F 93% 29.79 in 5 mi SW 22.4 mph - - Rain Heavy Rain
11:25 PM 60.8 °F 59.0 °F 94% 29.77 in 6.2 mi SW 24.2 mph - N/A Rain Light Drizzle
11:55 PM 57.2 °F 55.4 °F 94% 29.77 in 6.2 mi WNW 23.0 mph - N/A Rain Light Rain